FW4559 Weather Reports


Display with metric or nautical units.
time (UTC)temp
F
wind
direction
speed
MPH
gust
MPH
rain 1hr
in
rain 24hr
in
rain mn
in
humidity
%
barometer
mb
20260904160018 83 352 1.0 8.0 0.00 0.00 0.00 62 1016.4
20260904155517 83 331 1.0 9.0 0.00 0.00 0.00 64 1016.5
20260904155017 83 356 5.0 9.0 0.00 0.00 0.00 61 1016.5
20260904154518 83 22 1.0 10.0 0.00 0.00 0.00 64 1016.5
20260904154020 83 347 2.0 10.0 0.00 0.00 0.00 63 1016.5
20260904153517 82 70 1.0 9.0 0.00 0.00 0.00 64 1016.4
20260904153017 82 327 3.0 9.0 0.00 0.00 0.00 63 1016.4
20260904152516 83 11 3.0 8.0 0.00 0.00 0.00 62 1016.4
20260904152016 83 323 3.0 8.0 0.00 0.00 0.00 62 1016.4
20260904151517 84 99 3.0 8.0 0.00 0.00 0.00 61 1016.5
20260904151015 84 28 0.0 4.0 0.00 0.00 0.00 63 1016.4
20260904150515 84 57 1.0 4.0 0.00 0.00 0.00 63 1016.4
20260904150024 84 3 0.0 4.0 0.00 0.00 0.00 64 1016.5
20260904145515 85 353 0.0 4.0 0.00 0.00 0.00 62 1016.4
20260904145014 86 21 1.0 3.0 0.00 0.00 0.00 62 1016.4
20260904144513 87 308 0.0 1.0 0.00 0.00 0.00 62 1016.5
20260904144013 87 324 0.0 0.0 0.00 0.00 0.00 62 1016.4
20260904143513 86 324 0.0 2.0 0.00 0.00 0.00 63 1016.5
20260904143012 87 325 0.0 1.0 0.00 0.00 0.00 64 1016.5
20260904142511 85 219 0.0 0.0 0.00 0.00 0.00 67 1016.6
20260904142010 84 219 0.0 0.0 0.00 0.00 0.00 68 1016.5
20260904141507 84 219 0.0 0.0 0.00 0.00 0.00 69 1016.6
20260904141006 83 219 0.0 0.0 0.00 0.00 0.00 69 1016.6
20260904140505 83 219 0.0 0.0 0.00 0.00 0.00 72 1016.5
20260904140005 82 219 0.0 0.0 0.00 0.00 0.00 73 1016.6
20260904135503 81 219 0.0 0.0 0.00 0.00 0.00 75 1016.5
20260904135002 80 219 0.0 0.0 0.00 0.00 0.00 77 1016.5
20260904134600 80 219 0.0 0.0 0.00 0.00 0.00 78 1016.5
20260904134101 79 219 0.0 0.0 0.00 0.00 0.00 80 1016.5
20260904133557 78 219 0.0 0.0 0.00 0.00 0.00 80 1016.5
20260904133101 78 219 0.0 0.0 0.00 0.00 0.00 83 1016.4
20260904132554 76 219 0.0 0.0 0.00 0.00 0.00 84 1016.5
20260904132055 76 219 0.0 0.0 0.00 0.00 0.00 86 1016.5
20260904131551 75 219 0.0 0.0 0.00 0.00 0.00 89 1016.5
20260904131049 74 219 0.0 0.0 0.00 0.00 0.00 91 1016.6
20260904130548 72 219 0.0 0.0 0.00 0.00 0.00 93 1016.8
20260904130100 71 219 0.0 0.0 0.00 0.00 0.00 94 1016.8
20260904125549 71 219 0.0 0.0 0.00 0.00 0.00 96 1016.8
20260904125048 70 219 0.0 0.0 0.00 0.00 0.00 96 1016.8
20260904124547 70 219 0.0 0.0 0.00 0.00 0.00 96 1016.9
20260904124044 69 219 0.0 0.0 0.00 0.00 0.00 96 1016.9
20260904123542 67 219 0.0 0.0 0.00 0.00 0.00 96 1016.9
20260904123040 66 219 0.0 0.0 0.00 0.00 0.00 96 1016.8
20260904122540 64 219 0.0 0.0 0.00 0.00 0.00 96 1016.7
20260904122039 64 219 0.0 0.0 0.00 0.00 0.00 96 1016.6
20260904121539 63 219 0.0 0.0 0.00 0.00 0.00 96 1016.7
20260904121041 63 219 0.0 0.0 0.00 0.00 0.00 96 1016.6
20260904120537 62 219 0.0 0.0 0.00 0.00 0.00 96 1016.6
20260904120047 62 219 0.0 0.0 0.00 0.00 0.00 96 1016.6
20260904115537 62 219 0.0 0.0 0.00 0.00 0.00 96 1016.6
20260904115037 62 219 0.0 0.0 0.00 0.00 0.00 96 1016.5
20260904114538 62 219 0.0 0.0 0.00 0.00 0.00 96 1016.6
20260904114036 62 219 0.0 0.0 0.00 0.00 0.00 96 1016.5
20260904113541 62 219 0.0 0.0 0.00 0.00 0.00 96 1016.5
20260904113038 62 219 0.0 0.0 0.00 0.00 0.00 96 1016.4
20260904112535 62 219 0.0 0.0 0.00 0.00 0.00 96 1016.4
20260904112035 62 219 0.0 0.0 0.00 0.00 0.00 96 1016.4
20260904111535 62 219 0.0 0.0 0.00 0.00 0.00 96 1016.4
20260904111035 62 219 0.0 0.0 0.00 0.00 0.00 96 1016.4
20260904110535 62 219 0.0 0.0 0.00 0.00 0.00 96 1016.3
20260904110034 62 219 0.0 0.0 0.00 0.00 0.00 96 1016.2
20260904105533 62 219 0.0 0.0 0.00 0.00 0.00 96 1016.3
20260904105033 62 219 0.0 0.0 0.00 0.00 0.00 96 1016.2
20260904104532 62 219 0.0 0.0 0.00 0.00 0.00 96 1016.2
20260904104031 62 219 0.0 0.0 0.00 0.00 0.00 96 1016.0
20260904103531 62 219 0.0 0.0 0.00 0.00 0.00 96 1016.1
20260904103032 62 219 0.0 0.0 0.00 0.00 0.00 96 1016.0
20260904102531 62 219 0.0 0.0 0.00 0.00 0.00 96 1015.9
20260904102033 62 219 0.0 0.0 0.00 0.00 0.00 96 1016.1
20260904101531 62 219 0.0 0.0 0.00 0.00 0.00 96 1015.9
20260904101029 62 219 0.0 0.0 0.00 0.00 0.00 96 1016.0
20260904100532 62 219 0.0 0.0 0.00 0.00 0.00 96 1015.9
20260904100033 62 219 0.0 0.0 0.00 0.00 0.00 96 1015.9
20260904095531 62 219 0.0 0.0 0.00 0.00 0.00 96 1015.9
20260904095028 63 219 0.0 0.0 0.00 0.00 0.00 96 1015.8
20260904094528 63 219 0.0 0.0 0.00 0.00 0.00 96 1016.0
20260904094027 63 219 0.0 0.0 0.00 0.00 0.00 96 1016.0
20260904093527 63 219 0.0 0.0 0.00 0.00 0.00 96 1015.8
20260904093027 63 219 0.0 0.0 0.00 0.00 0.00 96 1015.8
20260904092526 63 219 0.0 0.0 0.00 0.00 0.00 96 1015.8
20260904092029 63 219 0.0 0.0 0.00 0.00 0.00 96 1015.7
20260904091526 63 219 0.0 0.0 0.00 0.00 0.00 96 1015.8
20260904091025 63 219 0.0 0.0 0.00 0.00 0.00 96 1015.7
20260904090525 63 219 0.0 0.0 0.00 0.00 0.00 96 1015.5
20260904090031 63 219 0.0 0.0 0.00 0.00 0.00 96 1015.5
20260904085525 63 219 0.0 0.0 0.00 0.00 0.00 96 1015.4
20260904085125 63 219 0.0 0.0 0.00 0.00 0.00 96 1015.5
20260904084525 63 219 0.0 0.0 0.00 0.00 0.00 96 1015.3
20260904084026 63 219 0.0 0.0 0.00 0.00 0.00 96 1015.4
20260904083524 63 219 0.0 0.0 0.00 0.00 0.00 96 1015.3
20260904083032 63 219 0.0 0.0 0.00 0.00 0.00 96 1015.3
20260904082523 63 219 0.0 0.0 0.00 0.00 0.00 96 1015.2
20260904082023 64 219 0.0 0.0 0.00 0.00 0.00 96 1015.4
20260904081522 63 219 0.0 0.0 0.00 0.00 0.00 96 1015.3
20260904081021 64 219 0.0 0.0 0.00 0.00 0.00 96 1015.3
20260904080520 64 219 0.0 0.0 0.00 0.00 0.00 96 1015.3
20260904080020 64 219 0.0 0.0 0.00 0.00 0.00 96 1015.4
20260904075520 64 219 0.0 0.0 0.00 0.00 0.00 96 1015.4
20260904075019 64 219 0.0 0.0 0.00 0.00 0.00 96 1015.4
20260904074520 64 219 0.0 0.0 0.00 0.00 0.00 96 1015.5
20260904074020 64 219 0.0 1.0 0.00 0.00 0.00 96 1015.5
20260904073523 64 219 0.0 1.0 0.00 0.00 0.00 96 1015.5
20260904073019 64 219 0.0 0.0 0.00 0.00 0.00 96 1015.5
20260904072519 64 219 0.0 0.0 0.00 0.00 0.00 96 1015.6
20260904072019 64 219 0.0 0.0 0.00 0.00 0.00 96 1015.6
20260904071522 64 219 0.0 0.0 0.00 0.00 0.00 96 1015.5
20260904071021 64 219 0.0 0.0 0.00 0.00 0.00 96 1015.6
20260904070519 64 219 0.0 0.0 0.00 0.00 0.00 96 1015.7
20260904070019 64 219 0.0 0.0 0.00 0.00 0.00 96 1015.8
20260904065516 64 219 0.0 0.0 0.00 0.00 0.00 96 1015.8
20260904065014 64 219 0.0 0.0 0.00 0.00 0.00 96 1015.9
20260904064514 65 219 0.0 0.0 0.00 0.00 0.00 96 1016.1
20260904064013 65 219 0.0 0.0 0.00 0.00 0.00 96 1016.1
20260904063513 65 219 0.0 0.0 0.00 0.00 0.00 96 1016.1
20260904063012 65 219 0.0 0.0 0.00 0.00 0.00 96 1016.2
20260904062511 65 219 0.0 0.0 0.00 0.00 0.00 96 1016.2
20260904062015 65 219 0.0 0.0 0.00 0.00 0.00 96 1016.3
20260904061527 65 219 0.0 0.0 0.00 0.00 0.00 96 1016.4
20260904061011 65 219 0.0 0.0 0.00 0.00 0.00 96 1016.4
20260904060510 65 219 0.0 0.0 0.00 0.00 0.00 96 1016.4
20260904060010 65 219 0.0 0.0 0.00 0.00 0.00 96 1016.4
20260904055509 65 219 0.0 0.0 0.00 0.00 0.00 96 1016.5
20260904055009 65 219 0.0 0.0 0.00 0.00 0.00 96 1016.5
20260904054518 65 219 0.0 0.0 0.00 0.00 0.00 96 1016.5
20260904054008 65 219 0.0 0.0 0.00 0.00 0.00 96 1016.5
20260904053507 65 219 0.0 0.0 0.00 0.00 0.00 96 1016.5
20260904053007 65 219 0.0 0.0 0.00 0.00 0.00 96 1016.6
20260904052507 65 219 0.0 0.0 0.00 0.00 0.00 95 1016.6
20260904052007 65 219 0.0 0.0 0.00 0.00 0.00 96 1016.7
20260904051505 66 219 0.0 1.0 0.00 0.00 0.00 96 1016.9
20260904051006 66 219 0.0 2.0 0.00 0.00 0.00 96 1016.8
20260904050503 66 229 1.0 2.0 0.00 0.00 0.00 95 1016.8
20260904050002 66 205 0.0 0.0 0.00 0.00 0.00 95 1016.9
20260904045503 66 205 0.0 0.0 0.00 0.00 0.00 95 1016.9
20260904045004 66 205 0.0 0.0 0.00 0.00 0.00 95 1017.0
20260904044505 66 205 0.0 0.0 0.00 0.00 0.00 95 1017.0
20260904044002 66 205 0.0 0.0 0.00 0.00 0.00 95 1017.0
20260904043501 66 205 0.0 0.0 0.00 0.00 0.00 95 1017.0
20260904043108 66 205 0.0 0.0 0.00 0.00 0.00 95 1017.0
20260904042559 66 205 0.0 0.0 0.00 0.00 0.00 95 1017.0
20260904042059 67 205 0.0 0.0 0.00 0.00 0.00 95 1016.9
20260904041556 67 205 0.0 0.0 0.00 0.00 0.00 95 1017.0
20260904041057 67 205 0.0 0.0 0.00 0.00 0.00 95 1016.9
20260904040557 67 205 0.0 0.0 0.00 0.00 0.00 95 1016.8
20260904040055 67 205 0.0 0.0 0.00 0.00 0.00 95 1016.8
20260904035555 67 205 0.0 0.0 0.00 0.00 0.00 95 1016.9
20260904035053 67 205 0.0 0.0 0.00 0.00 0.00 95 1016.9
20260904034554 67 205 0.0 0.0 0.00 0.00 0.00 95 1017.0
20260904034054 67 205 0.0 1.0 0.00 0.00 0.00 95 1017.0
20260904033554 67 205 0.0 1.0 0.00 0.00 0.00 95 1017.0
20260904033055 67 200 0.0 0.0 0.00 0.00 0.00 95 1017.2
20260904032554 67 200 0.0 0.0 0.00 0.00 0.00 95 1017.1
20260904032054 67 200 0.0 0.0 0.00 0.00 0.00 94 1017.0
20260904031554 67 200 0.0 0.0 0.00 0.00 0.00 94 1017.1
20260904031053 67 200 0.0 0.0 0.00 0.00 0.00 94 1017.0
20260904030553 68 200 0.0 0.0 0.00 0.00 0.00 94 1017.0
20260904030105 68 200 0.0 0.0 0.00 0.00 0.00 94 1017.1
20260904025553 68 200 0.0 0.0 0.00 0.00 0.00 94 1017.2
20260904025052 68 200 0.0 0.0 0.00 0.00 0.00 94 1017.1
20260904024553 68 200 0.0 0.0 0.00 0.00 0.00 94 1017.2
20260904024054 68 200 0.0 0.0 0.00 0.00 0.00 93 1017.2
20260904023552 68 200 0.0 1.0 0.00 0.00 0.00 93 1017.1
20260904023054 69 200 0.0 1.0 0.00 0.00 0.00 93 1017.0
20260904022551 69 229 0.0 1.0 0.00 0.00 0.00 93 1017.1
20260904022051 69 229 0.0 0.0 0.00 0.00 0.00 92 1017.0
20260904021550 69 229 0.0 1.0 0.00 0.00 0.00 92 1017.0
20260904021050 69 233 0.0 1.0 0.00 0.00 0.00 92 1016.9
20260904020548 69 218 0.0 0.0 0.00 0.00 0.00 92 1017.1
20260904020050 69 110 0.0 0.0 0.00 0.00 0.00 92 1017.1
20260904015550 70 110 0.0 0.0 0.00 0.00 0.00 92 1017.1
20260904015051 70 110 0.0 0.0 0.00 0.00 0.00 91 1017.0
20260904014553 70 110 0.0 0.0 0.00 0.00 0.00 91 1016.9
20260904014048 70 110 0.0 0.0 0.00 0.00 0.00 91 1016.9
20260904013548 71 110 0.0 0.0 0.00 0.00 0.00 91 1016.9
20260904013049 71 110 0.0 0.0 0.00 0.00 0.00 91 1016.9
20260904012551 71 110 0.0 0.0 0.00 0.00 0.00 90 1016.8
20260904012048 71 110 0.0 0.0 0.00 0.00 0.00 90 1016.7
20260904011547 71 110 0.0 1.0 0.00 0.00 0.00 90 1016.6
20260904011050 72 110 0.0 1.0 0.00 0.00 0.00 90 1016.6
20260904010548 72 110 0.0 0.0 0.00 0.00 0.00 89 1016.6
20260904010049 72 110 0.0 0.0 0.00 0.00 0.00 89 1016.6
20260904005550 72 110 0.0 1.0 0.00 0.00 0.00 88 1016.6
20260904005047 73 110 0.0 1.0 0.00 0.00 0.00 88 1016.4
20260904004547 73 110 0.0 0.0 0.00 0.00 0.00 87 1016.3
20260904004051 73 110 0.0 1.0 0.00 0.00 0.00 87 1016.3
20260904003549 73 110 0.0 1.0 0.00 0.00 0.00 87 1016.1
20260904003047 74 110 0.0 2.0 0.00 0.00 0.00 86 1016.2
20260904002546 74 96 0.0 2.0 0.00 0.00 0.00 86 1016.1
20260904002046 75 115 0.0 1.0 0.00 0.00 0.00 85 1015.9
20260904001544 75 115 0.0 1.0 0.00 0.00 0.00 84 1015.8
20260904001044 76 87 0.0 0.0 0.00 0.00 0.00 83 1015.7
20260904000546 76 87 0.0 1.0 0.00 0.00 0.00 82 1015.7
20260904000047 77 124 0.0 1.0 0.00 0.00 0.00 81 1015.7
20260903235548 78 124 0.0 1.0 0.00 0.00 0.00 78 1015.7
20260903235044 79 200 0.0 0.0 0.00 0.00 0.00 76 1015.7
20260903234543 79 200 0.0 0.0 0.00 0.00 0.00 75 1015.6
20260903234044 79 200 0.0 0.0 0.00 0.00 0.00 74 1015.6
20260903233544 80 200 0.0 1.0 0.00 0.00 0.00 73 1015.5
20260903233048 80 200 0.0 1.0 0.00 0.00 0.00 72 1015.3
20260903232542 80 212 0.0 2.0 0.00 0.00 0.00 72 1015.4
20260903232045 80 227 0.0 4.0 0.00 0.00 0.00 71 1015.3
20260903231543 80 150 2.0 4.0 0.00 0.00 0.00 71 1015.3
20260903231041 81 200 0.0 3.0 0.00 0.00 0.00 70 1015.4
20260903230542 81 230 1.0 3.0 0.00 0.00 0.00 70 1015.4
20260903230047 81 192 1.0 5.0 0.00 0.00 0.00 70 1015.3
20260903225542 82 184 2.0 5.0 0.00 0.00 0.00 69 1015.3
20260903225041 82 162 0.0 3.0 0.00 0.00 0.00 68 1015.3
20260903224541 82 199 1.0 2.0 0.00 0.00 0.00 68 1015.3
20260903224041 82 208 0.0 2.0 0.00 0.00 0.00 67 1015.3
20260903223542 82 193 0.0 5.0 0.00 0.00 0.00 67 1015.3
20260903223041 82 176 1.0 5.0 0.00 0.00 0.00 66 1015.2
20260903222545 83 187 2.0 5.0 0.00 0.00 0.00 64 1015.1
20260903222040 83 181 1.0 5.0 0.00 0.00 0.00 63 1015.1
20260903221540 83 208 1.0 4.0 0.00 0.00 0.00 63 1015.2
20260903221039 83 214 1.0 4.0 0.00 0.00 0.00 62 1015.1
20260903220539 83 184 1.0 5.0 0.00 0.00 0.00 61 1015.1
20260903220044 84 214 1.0 6.0 0.00 0.00 0.00 60 1015.1
20260903215541 84 143 2.0 6.0 0.00 0.00 0.00 59 1015.1
20260903215037 84 165 1.0 3.0 0.00 0.00 0.00 58 1015.2
20260903214543 84 193 0.0 5.0 0.00 0.00 0.00 56 1015.3
20260903214037 85 169 1.0 5.0 0.00 0.00 0.00 57 1015.2
20260903213536 85 207 2.0 5.0 0.00 0.00 0.00 57 1015.4
20260903213036 85 183 2.0 4.0 0.00 0.00 0.00 56 1015.4
20260903212537 85 162 1.0 5.0 0.00 0.00 0.00 57 1015.2
20260903212037 85 129 0.0 3.0 0.00 0.00 0.00 56 1015.4
20260903211537 85 185 1.0 5.0 0.00 0.00 0.00 57 1015.5
20260903211034 85 207 2.0 5.0 0.00 0.00 0.00 56 1015.5
20260903210534 85 179 2.0 6.0 0.00 0.00 0.00 55 1015.6
20260903210041 85 221 2.0 6.0 0.00 0.00 0.00 56 1015.6
20260903205533 85 203 2.0 5.0 0.00 0.00 0.00 56 1015.6
20260903205034 85 229 2.0 6.0 0.00 0.00 0.00 55 1015.6
20260903204533 86 160 3.0 6.0 0.00 0.00 0.00 55 1015.6
20260903204034 86 121 2.0 7.0 0.00 0.00 0.00 54 1015.6
20260903203531 86 191 2.0 7.0 0.00 0.00 0.00 55 1015.6
20260903203031 87 171 2.0 6.0 0.00 0.00 0.00 55 1015.6
20260903202532 87 191 3.0 6.0 0.00 0.00 0.00 54 1015.6
20260903202031 87 166 2.0 6.0 0.00 0.00 0.00 54 1015.7
20260903201533 87 195 1.0 8.0 0.00 0.00 0.00 56 1015.8
20260903201028 87 187 3.0 8.0 0.00 0.00 0.00 55 1015.9
20260903200529 87 186 3.0 8.0 0.00 0.00 0.00 53 1015.9
20260903200029 87 222 2.0 7.0 0.00 0.00 0.00 56 1015.9
20260903195528 87 184 1.0 10.0 0.00 0.00 0.00 55 1016.0
20260903195028 87 143 2.0 10.0 0.00 0.00 0.00 53 1016.0
20260903194526 88 185 2.0 6.0 0.00 0.00 0.00 55 1016.2
20260903194026 88 217 2.0 5.0 0.00 0.00 0.00 55 1016.1
20260903193525 88 158 0.0 6.0 0.00 0.00 0.00 54 1016.2
20260903193025 88 73 0.0 8.0 0.00 0.00 0.00 54 1016.2
20260903192525 89 134 2.0 7.0 0.00 0.00 0.00 53 1016.2
20260903192028 89 167 2.0 8.0 0.00 0.00 0.00 53 1016.2
20260903191529 89 207 1.0 8.0 0.00 0.00 0.00 54 1016.2
20260903191024 90 195 1.0 5.0 0.00 0.00 0.00 54 1016.3
20260903190524 90 181 1.0 5.0 0.00 0.00 0.00 54 1016.3
20260903190024 90 186 1.0 6.0 0.00 0.00 0.00 56 1016.3
20260903185522 90 94 2.0 6.0 0.00 0.00 0.00 54 1016.4
20260903185026 89 201 1.0 4.0 0.00 0.00 0.00 56 1016.4
20260903184525 89 169 1.0 6.0 0.00 0.00 0.00 55 1016.5
20260903184021 88 189 3.0 6.0 0.00 0.00 0.00 56 1016.5
20260903183521 89 198 2.0 6.0 0.00 0.00 0.00 55 1016.5
20260903183020 89 214 2.0 6.0 0.00 0.00 0.00 57 1016.6
20260903182522 89 139 2.0 6.0 0.00 0.00 0.00 58 1016.5
20260903182020 89 239 1.0 6.0 0.00 0.00 0.00 55 1016.8
20260903181519 89 195 2.0 4.0 0.00 0.00 0.00 54 1016.8
20260903181019 89 193 1.0 4.0 0.00 0.00 0.00 56 1016.9
20260903180519 89 200 1.0 9.0 0.00 0.00 0.00 54 1016.9
20260903180018 88 182 1.0 9.0 0.00 0.00 0.00 57 1016.9
20260903175518 89 235 4.0 8.0 0.00 0.00 0.00 52 1017.0
20260903175017 89 175 1.0 6.0 0.00 0.00 0.00 57 1017.0
20260903174516 90 182 2.0 5.0 0.00 0.00 0.00 54 1017.1
20260903174016 90 245 0.0 3.0 0.00 0.00 0.00 52 1017.1
20260903173514 91 127 0.0 2.0 0.00 0.00 0.00 49 1017.3
20260903173018 90 105 0.0 3.0 0.00 0.00 0.00 50 1017.3
20260903172515 89 226 1.0 3.0 0.00 0.00 0.00 49 1017.2
20260903172012 88 349 0.0 3.0 0.00 0.00 0.00 52 1017.3
20260903171511 88 348 0.0 3.0 0.00 0.00 0.00 52 1017.3
20260903171011 88 72 1.0 3.0 0.00 0.00 0.00 50 1017.4
20260903170510 88 139 0.0 3.0 0.00 0.00 0.00 53 1017.4
20260903170012 89 7 0.0 3.0 0.00 0.00 0.00 53 1017.5
20260903165509 89 153 0.0 1.0 0.00 0.00 0.00 55 1017.5
20260903165008 88 154 0.0 2.0 0.00 0.00 0.00 56 1017.6
20260903164509 87 70 0.0 3.0 0.00 0.00 0.00 53 1017.6
20260903164007 88 150 1.0 3.0 0.00 0.00 0.00 53 1017.7
20260903163507 87 212 0.0 3.0 0.00 0.00 0.00 56 1017.7
20260903163005 86 54 0.0 3.0 0.00 0.00 0.00 55 1017.8
20260903162504 86 101 1.0 3.0 0.00 0.00 0.00 55 1017.9
20260903162004 85 210 1.0 3.0 0.00 0.00 0.00 55 1017.8
20260903161503 84 111 1.0 4.0 0.00 0.00 0.00 59 1017.8
20260903161003 84 95 1.0 4.0 0.00 0.00 0.00 58 1017.8
20260903160504 85 131 0.0 6.0 0.00 0.00 0.00 58 1017.8